Location: Newark
(7.0858°N, 171.3717°E)
Time: 09:33:24
(UTC+00:00)

S-56A Canister/Altair - Pass Details

Date: 30 November 2020
Orbit: 633 x 2499 km, 38.9° (Epoch: 27 January)

Event Time Altitude Azimuth Distance (km) Brightness Sun altitude
Rises 04:36:19 0° 229° (SW) 6,088 13.5 21.7°
Reaches altitude 10° 04:40:13 10° 229° (SW) 5,142 13.5 20.8°
Maximum altitude 04:55:33 87° 318° (NW) 2,356 10.3 17.4°
Drops below altitude 10° 05:08:05 10° 48° (NE) 4,298 10.8 14.6°
Sets 05:11:03 0° 48° (NE) 5,080 11.1 13.9°
